Location: Cheb
(50.0670°N, 12.3670°E)
Time: 08:52:45
(UTC+01:00)

ISS - Visible Passes

Search period start: 01 December 2021 00:00
Search period end: 11 December 2021 00:00
Orbit: 417 x 423 km, 51.6° (Epoch: 01 December)

Date Brightness Start Highest point End Pass type
(mag) Time Alt. Az. Time Alt. Az. Time Alt. Az.
01 Dec -3.6 17:08:08 10° W 17:11:32 64° N 17:14:26 13° E visible
01 Dec -2.4 18:45:03 10° WNW 18:47:24 41° W 18:47:24 41° W visible
02 Dec -3.8 17:57:51 10° WNW 18:01:16 90° SW 18:02:15 44° ESE visible
02 Dec -0.3 19:34:56 10° W 19:35:15 12° W 19:35:15 12° W visible
03 Dec -3.8 17:10:38 10° WNW 17:14:03 76° NNE 17:17:10 12° E visible
03 Dec -2.1 18:47:35 10° W 18:50:10 34° SW 18:50:10 34° SW visible
04 Dec -3.1 18:00:18 10° WNW 18:03:37 52° SSW 18:05:13 26° SE visible
05 Dec -3.5 17:13:03 10° WNW 17:16:27 70° SSW 17:19:50 10° ESE visible
05 Dec -1.3 18:50:27 10° W 18:52:51 18° SW 18:53:26 17° SSW visible
06 Dec -1.6 18:02:54 10° W 18:05:48 26° SW 18:08:39 10° SSE visible
07 Dec -2.1 17:15:31 10° W 17:18:40 36° SSW 17:21:49 10° SE visible
08 Dec -0.5 18:06:24 10° WSW 18:07:43 12° SW 18:09:02 10° SSW visible
09 Dec -0.7 17:18:20 10° W 17:20:41 18° SW 17:23:01 10° S visible
